Regional Weather Roundup
Issued by NWS

Home | Current Version | Previous Version | Graphics & Text | Print | Product List | Glossary On
Versions: 1 2 3 4 5 6 7 8 9 10 11 12 13 14 15 16 17 18 19 20 21 22 23 24 25 26 27 28 29 30 31 32 33 34 35 36 37 38 39 40 41 42 43 44 45 46 47 48 49 50
109
ASUS43 KMKX 261121
RWRWI

WISCONSIN REGIONAL WEATHER ROUNDUP
NATIONAL WEATHER SERVICE MILWAUKEE/SULLIVAN WI
600 AM CDT FRI MAY 26 2017

NOTE: "FAIR" INDICATES FEW OR NO CLOUDS BELOW 12,000 FEET WITH NO
SIGNIFICANT WEATHER AND/OR OBSTRUCTIONS TO VISIBILITY.

WIZ001-002-006>008-014>016-023>028-261200-
NORTHWEST WISCONSIN

CITY           SKY/WX    TMP DP  RH WIND       PRES   REMARKS
SUPERIOR ARPT  NOT AVBL
ASHLAND        CLOUDY    50  47  89 CALM      29.77S
HAYWARD        CLOUDY    56  53  90 CALM      29.75F
SIREN          CLOUDY    58  54  85 CALM      29.72S
CUMBERLAND     CLOUDY    55  52  88 SE6       29.74S
RICE LAKE      CLOUDY    59  53  81 SE6       29.76S
CHETEK         CLOUDY    57  55  92 CALM      29.76R
LADYSMITH      CLOUDY    58  54  87 E6        29.79S
EAU CLAIRE     CLOUDY    59  54  83 SE7       29.75S
MENOMONIE      CLOUDY    58  55  89 E5        29.74S
NEW RICHMOND   CLOUDY    58  52  79 SE7       29.72S
OSCEOLA        MOCLDY    59  53  80 SE7       29.74S
$$

WIZ003>005-009-010-017-018-261200-
NORTH CENTRAL WISCONSIN

CITY           SKY/WX    TMP DP  RH WIND       PRES   REMARKS
MANITOWISH WTR LGT RAIN  53  53 100 S3        29.82R
ARBOR VITAE    CLOUDY    57  55  92 S5        29.82R
WOODRUFF       CLOUDY    57  55  92 S5        29.82R
RHINELANDER    CLOUDY    55  53  93 S3        29.83R
EAGLE RIVER    CLOUDY    52  50  94 CALM      29.83R
LAND O LAKES   CLOUDY    51  50  99 CALM      29.84R
PHILLIPS       CLOUDY    55  53  93 SE3       29.80S
TOMAHAWK       CLOUDY    53  51  93 CALM      29.83S
MEDFORD        CLOUDY    54  53  96 E6        29.80S
MERRILL        CLOUDY    54  54  99 CALM      29.83S
$$

WIZ029-030-035-036-043>047-261200-
CENTRAL WISCONSIN

CITY           SKY/WX    TMP DP  RH WIND       PRES   REMARKS
WAUSAU         LGT RAIN  54  53  97 E3        29.81F
MOSINEE        MOCLDY    54  54 100 E5        29.83F
MARSHFIELD     CLOUDY    56  54  93 E5        29.79S FOG
STEVENS POINT  CLOUDY    53  53 100 E6        29.82F FOG
WAUPACA        RAIN      57  55  92 CALM      29.84S
WAUTOMA          N/A     55  54  96 E5        29.82  FOG
WISC RAPIDS    CLOUDY    56  54  93 E5        29.82S
CAMP DOUGLAS   CLOUDY    54  54 100 E5        29.80S FOG
$$

WIZ011>013-019>022-031-037>040-048>050-261200-
NORTHEAST WISCONSIN

CITY           SKY/WX    TMP DP  RH WIND       PRES   REMARKS
ANTIGO         RAIN      52  51  97 S5        29.85R
SHAWANO        CLOUDY    52  51  94 CALM      29.84S
OCONTO         MOCLDY    46  45  99 CALM      29.84R
STURGEON BAY   PTCLDY    48  48 100 CALM      29.86R
GREEN BAY      CLOUDY    51  51 100 CALM      29.84R
MANITOWOC      FOG       48  48 100 SW6       29.85S VSB 1/2
APPLETON       MOCLDY    54  54 100 SW6       29.84R
CLINTONVILLE   CLOUDY    52  50  93 CALM      29.84R
OSHKOSH        CLOUDY    55  52  89 E3        29.83R
$$

WIZ032>034-041-042-053>061-261200-
SOUTHWEST WISCONSIN

CITY           SKY/WX    TMP DP  RH WIND       PRES   REMARKS
LA CROSSE      CLEAR     58  56  93 SE6       29.76R
SPARTA         FOG       51  51 100 CALM      29.79R VSB 3/4
VIROQUA        CLEAR     54  53  95 N7        29.78S
BOSCOBEL       CLOUDY    53  52  96 CALM      29.79S FOG
PRAIRIE DU CHI CLEAR     55  52  91 CALM      29.76S
PLATTEVILLE    PTCLDY    55  54  99 E9        29.80S
$$

WIZ056-057-062-063-064-067-068-261200-
SOUTH CENTRAL WISCONSIN

CITY           SKY/WX    TMP DP  RH WIND       PRES   REMARKS
REEDSBURG      PTCLDY    54  54 100 CALM      29.80S FOG
BARABOO/DELLS  PTCLDY    52  50  93 CALM      29.81R FOG
LONE ROCK      CLEAR     53  51  93 E6        29.80S FOG
MINERAL POINT  CLEAR     55  55 100 E5        29.80S
MADISON        MOCLDY    55  52  89 SE3       29.81S
MIDDLETON        N/A     53  53 100 CALM      29.83R
WATERTOWN      CLOUDY    53  53 100 CALM      29.83S
MONROE         CLEAR     54  52  94 E5        29.81F FOG
JANESVILLE     PTCLDY    54  54 100 CALM      29.82F
$$

WIZ051-052-058>065-066-070>072-261200-
SOUTHEAST WISCONSIN

CITY           SKY/WX    TMP DP  RH WIND       PRES   REMARKS
MILWAUKEE      CLOUDY    55  54  96 CALM      29.85R
WAUKESHA       PTCLDY    52  52 100 SW3       29.86R FOG
MILWAUKEE/TIMM   N/A     54  50  87 CALM      29.85S
RACINE         CLOUDY    53  52  96 CALM      29.86R FOG
KENOSHA        CLOUDY    52  50  93 NE3       29.85R
FOND DU LAC    LGT RAIN  55  51  86 E3        29.84R
SHEBOYGAN      CLOUDY    51  51 100 CALM      29.85R FOG
WEST BEND      LGT RAIN  52  52 100 CALM      29.85R
JUNEAU         CLOUDY    54  53  97 CALM      29.85R FOG
$$

LSZ147-162-261200-
LAKE SUPERIOR

STATION/POSITION TIME  TEMP    WIND        PRES    WAVE
                       AIR SEA DIR/SP/G            HT/PER
                 (UTC) (F)     (DEG/KT/KT) (MB)    (FT/S)
W MID LAKE BUOY  1050   43 37  350/  2/  2 1008.6R   1
DEVILS ISLAND    1100   43     250/  7/  8 1008.6R
PORT WING        0830   46     170/  2/  3 1007.8
SAXON HARBOR     1040   51     200/  4/  6 1008.1S
$$

LMZ867-665-643>646-261200-
LAKE MICHIGAN

STATION/POSITION TIME  TEMP    WIND        PRES    WAVE
                       AIR SEA DIR/SP/G            HT/PER
                 (UTC) (F)     (DEG/KT/KT) (MB)    (FT/S)
CHAMBERS ISLAND  1040   49        CALM     1009.8S
N MID LAKE BUOY  1050   43 41  270/  6/  8 1011.2R   0
NORTHPORT PIER   1040   49     310/  1/  3 1010.2S
SISTER BAY       1021   48        CALM       N/A
KEWAUNEE LAKESHO 1054   49     320/  3/  4 1010.4R
SHEBOYGAN LAKESH 1100   49      30/  7/  8 1010.8R
PORT WASHINGTON  1040   55     340/  2/  5 1011.5R
ATWATER BUOY     0909   51     320/  4/  4 1010.0
MILWAUKEE LAKESH 1100   54      40/  5/  5   N/A
S MID LAKE BUOY  1050   46 45  360/  6/  8 1010.7R   1/ 5
KENOSHA   LAKESH 1100   54        CALM     1011.2
$$

TC  - TEMPERATURE IN CELSIUS
VSB - VISIBILITY IN STATUTE MILES
WCI - WIND CHILL INDEX
HX  - HEAT INDEX





USA.gov is the U.S. government's official web portal to all federal, state and local government web resources and services.